DW5321 Paradera AW current weather conditions

sailwx.info

Wind from 120 at 5 knots gusting 9

Air temperature 27.2° C
Dewpoint 24.5° C

Last reported at 2014-Nov-23 09:38 UTC.
Time now 2014-Nov-23 11:04 UTC

Location: N 12°33' W 070°00'.
View on Google Maps.

See reports from other nearby stations

  
Tides and Currents Weather Stations Pressure Air Temp Water Temp Dewpoint Dewpoint Depression Visibility Wind Speed Wind Dir Waves Ship Positions
date/time (UTC)wind fromknots sea level pressurealtimeterstation pressurevisibilityair tempwater tempwave heightnotes
2014-Nov-23 10:38 104 6 gusting 10 27.2
2014-Nov-23 10:23 096 6 gusting 9 27.2
2014-Nov-23 10:08 072 4 gusting 7 27.2
2014-Nov-23 09:53 097 3 gusting 8 27.2
2014-Nov-23 09:38 120 5 gusting 9 27.2
2014-Nov-23 09:23 069 5 gusting 8 27.2
2014-Nov-23 09:08 064 4 27.2
2014-Nov-23 08:53 084 4 gusting 7 27.2
2014-Nov-23 08:38 094 5 gusting 7 27.2
2014-Nov-23 08:23 099 5 gusting 8 27.2
2014-Nov-23 08:08 114 4 gusting 10 27.2
2014-Nov-23 07:53 108 4 gusting 10 27.2
2014-Nov-23 07:38 086 5 gusting 7 27.2
2014-Nov-23 07:23 103 6 gusting 12 27.2
2014-Nov-23 07:08 105 5 gusting 9 27.2
2014-Nov-23 06:53 084 4 gusting 10 27.2
2014-Nov-23 06:38 110 6 gusting 11 27.2
2014-Nov-23 06:23 117 4 gusting 10 27.2
2014-Nov-23 06:08 103 4 gusting 10 27.2
2014-Nov-23 05:53 096 5 gusting 11 27.2
2014-Nov-23 05:38 124 6 gusting 10 27.2
2014-Nov-23 05:23 108 6 gusting 10 27.2
2014-Nov-23 05:08 084 6 gusting 13 27.2
2014-Nov-23 04:38 082 6 gusting 13 27.8
2014-Nov-23 04:23 079 5 gusting 11 27.8
2014-Nov-23 04:08 074 6 gusting 11 27.8
2014-Nov-23 03:52 066 7 gusting 13 27.8
2014-Nov-23 03:37 090 4 gusting 9 27.8
2014-Nov-23 03:22 094 2 gusting 8 27.8
2014-Nov-23 03:07 080 6 gusting 10 27.8
2014-Nov-23 02:52 078 6 gusting 10 27.8
2014-Nov-23 02:37 075 6 gusting 10 27.8
2014-Nov-23 02:22 139 4 gusting 11 27.8
2014-Nov-23 02:07 101 6 gusting 13 27.8
2014-Nov-23 01:52 089 5 gusting 10 27.8
2014-Nov-23 01:37 066 6 gusting 10 27.8
2014-Nov-23 01:22 115 4 gusting 9 27.8
2014-Nov-23 01:07 114 6 gusting 9 27.2
2014-Nov-23 00:52 088 3 gusting 8 27.2
2014-Nov-23 00:37 073 4 gusting 8 27.2
2014-Nov-23 00:22 064 3 gusting 7 27.2
2014-Nov-23 00:07 080 3 gusting 7 27.2
2014-Nov-22 23:52 066 4 gusting 6 27.2
2014-Nov-22 23:37 088 3 gusting 6 27.2
2014-Nov-22 23:22 077 5 gusting 9 27.2
2014-Nov-22 23:07 060 4 gusting 9 27.2
2014-Nov-22 22:52 089 5 gusting 9 27.2
2014-Nov-22 22:37 095 6 gusting 9 27.2
2014-Nov-22 22:22 081 5 gusting 8 27.2
2014-Nov-22 22:07 071 4 gusting 8 27.2
2014-Nov-22 21:52 079 5 gusting 12 27.8
2014-Nov-22 21:37 080 8 gusting 13 27.8
2014-Nov-22 21:22 091 6 gusting 13 27.8
2014-Nov-22 21:07 075 6 gusting 12 28.3
2014-Nov-22 20:52 354 8 gusting 13 28.9
2014-Nov-22 20:37 125 7 gusting 12 28.9
2014-Nov-22 20:22 081 6 gusting 13 28.9
2014-Nov-22 20:07 100 8 gusting 12 28.9
2014-Nov-22 19:52 064 4 gusting 13 28.3
2014-Nov-22 19:37 097 7 gusting 13 29.4
2014-Nov-22 19:22 090 6 gusting 12 29.4
2014-Nov-22 19:07 072 6 gusting 13 29.4
2014-Nov-22 18:52 073 6 gusting 12 29.4
2014-Nov-22 18:37 070 6 gusting 12 30.0
2014-Nov-22 18:22 066 6 gusting 10 29.4
2014-Nov-22 18:06 082 6 gusting 12 29.4
2014-Nov-22 17:51 120 5 gusting 13 28.9
2014-Nov-22 17:36 099 4 gusting 13 29.4
2014-Nov-22 17:21 071 5 gusting 11 30.0
2014-Nov-22 17:06 077 6 gusting 10 30.0
2014-Nov-22 16:51 068 5 gusting 12 30.0
2014-Nov-22 16:36 075 6 gusting 11 30.0
2014-Nov-22 16:21 041 4 gusting 10 30.6
2014-Nov-22 16:06 077 3 gusting 11 29.4
2014-Nov-22 15:51 071 8 gusting 13 30.0
2014-Nov-22 15:36 099 7 gusting 12 30.0
2014-Nov-22 15:21 079 6 gusting 12 29.4
2014-Nov-22 15:06 073 7 gusting 13 29.4
2014-Nov-22 14:51 108 6 gusting 13 29.4
2014-Nov-22 14:36 105 6 gusting 18 28.9
2014-Nov-22 14:21 071 9 gusting 14 28.9
2014-Nov-22 14:06 107 9 gusting 14 29.4
2014-Nov-22 13:51 094 9 gusting 13 28.9
2014-Nov-22 13:36 063 5 gusting 11 29.4
2014-Nov-22 13:21 067 5 gusting 11 28.9
2014-Nov-22 13:06 117 6 gusting 11 28.3
2014-Nov-22 12:51 103 5 gusting 10 28.3
2014-Nov-22 12:36 099 6 gusting 12 28.3
2014-Nov-22 12:21 086 5 gusting 9 27.8
2014-Nov-22 12:06 080 6 gusting 12 27.8
2014-Nov-22 11:51 079 1 gusting 5 26.7
2014-Nov-22 11:36 078 0 gusting 3 26.1
2014-Nov-22 11:21 075 2 gusting 6 26.1
2014-Nov-22 11:06 068 26.1
2014-Nov-22 10:51 014 0 gusting 2 26.1
2014-Nov-22 10:36 107 0 gusting 2 26.1
2014-Nov-22 10:21 096 0 gusting 3 26.1
2014-Nov-22 10:05 084 1 gusting 3 25.6
2014-Nov-22 09:50 095 1 gusting 4 25.6
2014-Nov-22 09:35 104 5 gusting 10 25.6
2014-Nov-22 09:20 080 2 gusting 6 26.1
2014-Nov-22 09:05 084 2 gusting 4 26.1
2014-Nov-22 08:50 100 1 gusting 4 26.1
2014-Nov-22 08:35 079 3 gusting 6 26.7
2014-Nov-22 08:20 113 2 gusting 6 26.1
2014-Nov-22 08:05 077 1 gusting 4 26.1
2014-Nov-22 07:50 040 0 gusting 6 26.1
2014-Nov-22 07:35 075 4 gusting 11 26.1
2014-Nov-22 07:20 073 4 gusting 7 26.7
2014-Nov-22 07:05 078 3 gusting 6 26.7
2014-Nov-22 06:50 124 2 gusting 6 26.1
2014-Nov-22 06:35 057 2 gusting 6 26.1
2014-Nov-22 06:20 078 3 gusting 6 26.1
2014-Nov-22 06:05 081 2 gusting 6 26.1
2014-Nov-22 05:50 080 4 gusting 7 26.1
2014-Nov-22 05:35 085 1 gusting 6 26.1
2014-Nov-22 05:20 074 4 gusting 10 26.7
2014-Nov-22 05:05 094 5 gusting 9 27.2
2014-Nov-22 04:50 081 2 gusting 7 27.2
2014-Nov-22 04:35 071 4 gusting 8 27.2
2014-Nov-22 04:20 076 5 gusting 8 27.2
2014-Nov-22 04:05 083 3 gusting 8 27.2
2014-Nov-22 03:50 088 3 gusting 9 27.2
2014-Nov-22 03:35 073 6 gusting 11 27.2
2014-Nov-22 03:20 086 6 gusting 9 27.2
2014-Nov-22 03:05 071 4 gusting 9 27.2
2014-Nov-22 02:50 071 2 gusting 6 27.2
2014-Nov-22 02:35 060 3 gusting 7 27.2
2014-Nov-22 02:20 079 5 gusting 9 27.2
2014-Nov-22 02:05 091 4 gusting 9 27.2
2014-Nov-22 01:50 072 5 gusting 9 27.2
2014-Nov-22 01:35 106 3 gusting 6 27.2
2014-Nov-22 01:20 091 4 gusting 8 27.8
2014-Nov-22 01:05 048 4 gusting 7 27.8
2014-Nov-22 00:50 037 2 gusting 7 27.8
2014-Nov-22 00:35 360 5 gusting 9 27.2
2014-Nov-22 00:20 120 3 gusting 7 27.2
2014-Nov-22 00:05 063 5 gusting 7 27.2
2014-Nov-21 23:50 066 4 gusting 12 27.8
2014-Nov-21 23:35 041 4 gusting 8 27.8
2014-Nov-21 23:20 075 3 gusting 8 27.2
2014-Nov-21 23:05 064 4 gusting 6 27.8
2014-Nov-21 22:50 082 3 gusting 7 27.8
2014-Nov-21 22:35 086 3 gusting 10 27.8
2014-Nov-21 22:20 079 4 gusting 8 27.8
2014-Nov-21 22:05 070 5 gusting 10 27.8
2014-Nov-21 21:50 060 5 gusting 9 27.8
2014-Nov-21 21:35 082 5 gusting 13 28.3
2014-Nov-21 21:20 073 7 gusting 12 28.3
2014-Nov-21 21:05 064 6 gusting 11 28.3
2014-Nov-21 20:50 071 4 gusting 11 28.9
2014-Nov-21 20:35 066 6 gusting 10 28.9
2014-Nov-21 20:20 037 7 gusting 12 28.9
2014-Nov-21 20:04 105 5 gusting 12 28.9
2014-Nov-21 19:49 072 6 gusting 13 28.3
2014-Nov-21 19:34 063 6 gusting 11 28.9
2014-Nov-21 19:19 089 3 gusting 7 27.8
2014-Nov-21 19:04 059 4 gusting 9 28.3
2014-Nov-21 18:49 064 6 gusting 16 28.9
2014-Nov-21 18:34 100 5 gusting 13 30.0
2014-Nov-21 18:19 068 6 gusting 12 29.4
2014-Nov-21 18:04 084 4 gusting 11 30.0
2014-Nov-21 17:49 070 5 gusting 13 30.0
2014-Nov-21 17:34 079 6 gusting 11 29.4
2014-Nov-21 17:19 075 8 gusting 14 28.9
2014-Nov-21 17:04 115 7 gusting 14 29.4
2014-Nov-21 16:49 088 5 gusting 10 28.3
2014-Nov-21 16:34 117 7 gusting 16 27.2
2014-Nov-21 16:19 103 9 gusting 13 29.4
2014-Nov-21 16:04 075 9 gusting 13 28.9
2014-Nov-21 15:49 056 5 gusting 13 29.4
2014-Nov-21 15:34 100 6 gusting 13 28.3
2014-Nov-21 15:19 048 5 gusting 18 30.0
2014-Nov-21 14:49 111 9 gusting 13 29.4
2014-Nov-21 14:34 107 6 gusting 13 29.4
2014-Nov-21 14:19 015 6 gusting 14 28.9
2014-Nov-21 14:04 091 9 gusting 13 29.4
2014-Nov-21 13:49 079 5 gusting 13 28.9
2014-Nov-21 13:34 113 6 gusting 13 28.9
2014-Nov-21 13:19 071 6 gusting 15 28.9
2014-Nov-21 13:04 084 5 gusting 12 28.9
2014-Nov-21 12:49 089 6 gusting 13 28.3
2014-Nov-21 12:34 107 6 gusting 13 28.3
2014-Nov-21 12:19 090 6 gusting 10 27.8
2014-Nov-21 12:04 091 5 gusting 11 27.8
2014-Nov-21 11:49 061 3 gusting 10 27.2
2014-Nov-21 11:34 082 3 gusting 9 27.2
2014-Nov-21 11:19 074 6 gusting 13 26.7
2014-Nov-21 11:04 098 4 gusting 7 26.1